Time,TemperatureF,DewpointF,PressureIn,WindDirection,WindDirectionDegrees,WindSpeedMPH,WindSpeedGustMPH,Humidity,HourlyPrecipIn,Conditions,Clouds,dailyrainin,SoftwareType,DateUTC
2014-07-28 00:01:00,73.9,57.7,29.72,NW,311,0.0,5.0,57,0.00,,,0.00,WeatherCatV1.23B16,2014-07-28 04:01:00,
2014-07-28 00:02:00,73.7,57.5,29.72,WNW,292,3.0,5.0,57,0.00,,,0.00,WeatherCatV1.23B16,2014-07-28 04:02:00,
2014-07-28 00:07:00,73.7,57.5,29.72,NW,321,0.0,5.0,57,0.00,,,0.00,WeatherCatV1.23B16,2014-07-28 04:07:00,
2014-07-28 00:12:00,73.5,57.3,29.72,WSW,247,1.0,6.0,57,0.00,,,0.00,WeatherCatV1.23B16,2014-07-28 04:12:00,
2014-07-28 00:17:00,73.3,57.6,29.72,SW,221,0.0,5.0,58,0.00,,,0.00,WeatherCatV1.23B16,2014-07-28 04:17:00,
2014-07-28 00:22:00,73.0,57.3,29.72,West,268,0.0,4.0,58,0.00,,,0.00,WeatherCatV1.23B16,2014-07-28 04:22:00,
2014-07-28 00:27:00,72.8,57.2,29.72,WSW,254,0.0,4.0,58,0.00,,,0.00,WeatherCatV1.23B16,2014-07-28 04:27:00,
2014-07-28 00:32:00,72.7,57.0,29.72,SW,220,0.0,1.0,58,0.00,,,0.00,WeatherCatV1.23B16,2014-07-28 04:32:00,
2014-07-28 00:37:00,72.5,57.3,29.72,NW,304,0.0,3.0,59,0.00,,,0.00,WeatherCatV1.23B16,2014-07-28 04:37:00,
2014-07-28 00:42:00,72.3,57.2,29.72,WSW,258,0.0,4.0,59,0.00,,,0.00,WeatherCatV1.23B16,2014-07-28 04:42:00,
2014-07-28 00:47:00,72.1,57.4,29.72,WSW,258,0.0,1.0,60,0.00,,,0.00,WeatherCatV1.23B16,2014-07-28 04:47:00,
2014-07-28 00:52:00,71.8,57.2,29.72,NW,309,2.0,2.0,60,0.00,,,0.00,WeatherCatV1.23B16,2014-07-28 04:52:00,
2014-07-28 00:57:00,71.6,57.4,29.72,North,355,0.0,0.0,61,0.00,,,0.00,WeatherCatV1.23B16,2014-07-28 04:57:00,
2014-07-28 01:02:00,71.5,57.8,29.72,NW,307,1.0,1.0,62,0.00,,,0.00,WeatherCatV1.23B16,2014-07-28 05:02:00,
2014-07-28 01:07:00,71.3,57.6,29.72,WNW,290,0.0,0.0,62,0.00,,,0.00,WeatherCatV1.23B16,2014-07-28 05:07:00,
2014-07-28 01:12:00,71.1,57.8,29.72,WNW,291,0.0,0.0,63,0.00,,,0.00,WeatherCatV1.23B16,2014-07-28 05:12:00,
2014-07-28 01:17:00,70.9,57.2,29.73,WNW,291,0.0,1.0,62,0.00,,,0.00,WeatherCatV1.23B16,2014-07-28 05:17:00,
2014-07-28 01:22:00,70.9,57.2,29.73,West,279,0.0,0.0,62,0.00,,,0.00,WeatherCatV1.23B16,2014-07-28 05:22:00,
2014-07-28 01:27:00,70.9,57.2,29.73,West,279,0.0,1.0,62,0.00,,,0.00,WeatherCatV1.23B16,2014-07-28 05:27:00,
2014-07-28 01:32:00,70.8,57.1,29.73,North,10,0.0,1.0,62,0.00,,,0.00,WeatherCatV1.23B16,2014-07-28 05:32:00,
2014-07-28 01:37:00,70.6,56.9,29.73,SW,235,0.0,3.0,62,0.00,,,0.00,WeatherCatV1.23B16,2014-07-28 05:37:00,
2014-07-28 01:42:00,70.4,56.8,29.73,SW,235,0.0,0.0,62,0.00,,,0.00,WeatherCatV1.23B16,2014-07-28 05:42:00,
2014-07-28 01:47:00,70.3,56.7,29.73,WSW,251,1.0,4.0,62,0.00,,,0.00,WeatherCatV1.23B16,2014-07-28 05:47:00,
2014-07-28 01:52:00,70.1,56.9,29.73,NE,39,0.0,0.0,63,0.00,,,0.00,WeatherCatV1.23B16,2014-07-28 05:52:00,
2014-07-28 01:57:00,70.1,56.9,29.73,NE,39,0.0,0.0,63,0.00,,,0.00,WeatherCatV1.23B16,2014-07-28 05:57:00,
2014-07-28 02:02:00,69.8,56.6,29.73,NE,39,0.0,0.0,63,0.00,,,0.00,WeatherCatV1.23B16,2014-07-28 06:02:00,
2014-07-28 02:07:00,69.6,56.9,29.73,NE,39,0.0,0.0,64,0.00,,,0.00,WeatherCatV1.23B16,2014-07-28 06:07:00,
2014-07-28 02:12:00,69.4,56.7,29.73,NE,39,0.0,0.0,64,0.00,,,0.00,WeatherCatV1.23B16,2014-07-28 06:12:00,
2014-07-28 02:17:00,69.3,57.0,29.73,NE,39,0.0,0.0,65,0.00,,,0.00,WeatherCatV1.23B16,2014-07-28 06:17:00,
2014-07-28 02:22:00,69.1,57.2,29.73,NE,39,0.0,0.0,66,0.00,,,0.00,WeatherCatV1.23B16,2014-07-28 06:22:00,
2014-07-28 02:27:00,68.8,57.4,29.73,NE,39,0.0,0.0,67,0.00,,,0.00,WeatherCatV1.23B16,2014-07-28 06:27:00,
2014-07-28 02:32:00,68.6,57.2,29.74,NE,39,0.0,0.0,67,0.00,,,0.00,WeatherCatV1.23B16,2014-07-28 06:32:00,
2014-07-28 02:37:00,68.4,57.4,29.74,NE,39,0.0,0.0,68,0.00,,,0.00,WeatherCatV1.23B16,2014-07-28 06:37:00,
2014-07-28 02:42:00,68.3,57.7,29.74,NE,39,0.0,0.0,69,0.00,,,0.00,WeatherCatV1.23B16,2014-07-28 06:42:00,
2014-07-28 02:47:00,68.1,57.9,29.73,NE,39,0.0,0.0,70,0.00,,,0.00,WeatherCatV1.23B16,2014-07-28 06:47:00,
2014-07-28 02:52:00,67.8,57.2,29.73,NE,39,0.0,0.0,69,0.00,,,0.00,WeatherCatV1.23B16,2014-07-28 06:52:00,
2014-07-28 02:57:00,67.8,58.0,29.73,NE,39,0.0,0.0,71,0.00,,,0.00,WeatherCatV1.23B16,2014-07-28 06:57:00,
2014-07-28 03:02:00,67.6,58.2,29.73,NE,39,0.0,0.0,72,0.00,,,0.00,WeatherCatV1.23B16,2014-07-28 07:02:00,
2014-07-28 03:07:00,67.4,58.0,29.73,NE,39,0.0,0.0,72,0.00,,,0.00,WeatherCatV1.23B16,2014-07-28 07:07:00,
2014-07-28 03:12:00,67.1,57.4,29.73,NE,39,0.0,0.0,71,0.00,,,0.00,WeatherCatV1.23B16,2014-07-28 07:12:00,
2014-07-28 03:17:00,66.9,57.2,29.73,NE,39,0.0,0.0,71,0.00,,,0.00,WeatherCatV1.23B16,2014-07-28 07:17:00,
2014-07-28 03:22:00,66.9,57.2,29.73,NE,39,0.0,0.0,71,0.00,,,0.00,WeatherCatV1.23B16,2014-07-28 07:22:00,
2014-07-28 03:27:00,66.8,57.5,29.73,NE,39,0.0,0.0,72,0.00,,,0.00,WeatherCatV1.23B16,2014-07-28 07:27:00,
2014-07-28 03:32:00,66.8,57.9,29.73,NE,39,0.0,0.0,73,0.00,,,0.00,WeatherCatV1.23B16,2014-07-28 07:32:00,
2014-07-28 03:37:00,66.6,58.8,29.73,NE,39,0.0,0.0,76,0.00,,,0.00,WeatherCatV1.23B16,2014-07-28 07:37:00,
2014-07-28 03:42:00,66.4,59.0,29.73,NE,39,0.0,0.0,77,0.00,,,0.00,WeatherCatV1.23B16,2014-07-28 07:42:00,
2014-07-28 03:47:00,66.1,59.0,29.74,NE,39,0.0,0.0,78,0.00,,,0.00,WeatherCatV1.23B16,2014-07-28 07:47:00,
2014-07-28 03:52:00,66.0,59.7,29.74,NE,39,0.0,0.0,80,0.00,,,0.00,WeatherCatV1.23B16,2014-07-28 07:52:00,
2014-07-28 03:57:00,65.6,59.3,29.74,NE,39,0.0,0.0,80,0.00,,,0.00,WeatherCatV1.23B16,2014-07-28 07:57:00,
2014-07-28 04:02:00,65.3,59.0,29.74,NE,39,0.0,0.0,80,0.00,,,0.00,WeatherCatV1.23B16,2014-07-28 08:02:00,
2014-07-28 04:07:00,65.2,59.2,29.74,NE,39,0.0,0.0,81,0.00,,,0.00,WeatherCatV1.23B16,2014-07-28 08:07:00,
2014-07-28 04:12:00,64.8,58.8,29.74,NE,39,0.0,0.0,81,0.00,,,0.00,WeatherCatV1.23B16,2014-07-28 08:12:00,
2014-07-28 04:17:00,64.5,58.5,29.75,NE,39,0.0,0.0,81,0.00,,,0.00,WeatherCatV1.23B16,2014-07-28 08:17:00,
2014-07-28 04:22:00,64.5,58.9,29.75,NE,39,0.0,0.0,82,0.00,,,0.00,WeatherCatV1.23B16,2014-07-28 08:22:00,
2014-07-28 04:27:00,64.3,59.0,29.75,NE,39,0.0,0.0,83,0.00,,,0.00,WeatherCatV1.23B16,2014-07-28 08:27:00,
2014-07-28 04:32:00,64.2,58.6,29.75,NNE,23,0.0,1.0,82,0.00,,,0.00,WeatherCatV1.23B16,2014-07-28 08:32:00,
2014-07-28 04:37:00,64.0,58.4,29.75,NNE,23,0.0,0.0,82,0.00,,,0.00,WeatherCatV1.23B16,2014-07-28 08:37:00,
2014-07-28 04:42:00,64.0,58.0,29.75,NNE,23,0.0,0.0,81,0.00,,,0.00,WeatherCatV1.23B16,2014-07-28 08:42:00,
2014-07-28 04:47:00,63.9,57.6,29.75,NNE,23,0.0,0.0,80,0.00,,,0.00,WeatherCatV1.23B16,2014-07-28 08:47:00,
2014-07-28 04:52:00,64.0,57.7,29.75,NNE,23,0.0,0.0,80,0.00,,,0.00,WeatherCatV1.23B16,2014-07-28 08:52:00,
2014-07-28 04:57:00,64.0,57.7,29.75,NNE,20,0.0,0.0,80,0.00,,,0.00,WeatherCatV1.23B16,2014-07-28 08:57:00,
2014-07-28 05:02:00,64.2,57.9,29.76,NNE,20,0.0,0.0,80,0.00,,,0.00,WeatherCatV1.23B16,2014-07-28 09:02:00,
2014-07-28 05:07:00,64.2,57.5,29.76,NNE,20,0.0,0.0,79,0.00,,,0.00,WeatherCatV1.23B16,2014-07-28 09:07:00,
2014-07-28 05:12:00,64.2,57.9,29.76,NNE,20,0.0,0.0,80,0.00,,,0.00,WeatherCatV1.23B16,2014-07-28 09:12:00,
2014-07-28 05:17:00,64.0,57.7,29.76,NNE,20,0.0,0.0,80,0.00,,,0.00,WeatherCatV1.23B16,2014-07-28 09:17:00,
2014-07-28 05:22:00,64.0,57.7,29.76,NNE,20,0.0,0.0,80,0.00,,,0.00,WeatherCatV1.23B16,2014-07-28 09:22:00,
2014-07-28 05:27:00,63.9,57.2,29.76,NNE,20,0.0,0.0,79,0.00,,,0.00,WeatherCatV1.23B16,2014-07-28 09:27:00,
2014-07-28 05:32:00,63.9,57.6,29.76,NNE,18,0.0,0.0,80,0.00,,,0.00,WeatherCatV1.23B16,2014-07-28 09:32:00,
2014-07-28 05:37:00,63.9,57.2,29.76,North,9,0.0,0.0,79,0.00,,,0.00,WeatherCatV1.23B16,2014-07-28 09:37:00,
2014-07-28 05:42:00,63.9,57.2,29.76,North,9,0.0,0.0,79,0.00,,,0.00,WeatherCatV1.23B16,2014-07-28 09:42:00,
2014-07-28 05:47:00,63.9,57.2,29.78,North,9,0.0,0.0,79,0.00,,,0.00,WeatherCatV1.23B16,2014-07-28 09:47:00,
2014-07-28 05:52:00,63.9,57.2,29.78,North,9,0.0,0.0,79,0.00,,,0.00,WeatherCatV1.23B16,2014-07-28 09:52:00,
2014-07-28 05:57:00,63.9,57.2,29.78,North,9,0.0,0.0,79,0.00,,,0.00,WeatherCatV1.23B16,2014-07-28 09:57:00,
2014-07-28 06:02:00,63.9,57.2,29.78,North,9,0.0,0.0,79,0.00,,,0.00,WeatherCatV1.23B16,2014-07-28 10:02:00,
2014-07-28 06:07:00,64.0,57.3,29.78,North,9,0.0,0.0,79,0.00,,,0.00,WeatherCatV1.23B16,2014-07-28 10:07:00,
2014-07-28 06:12:00,64.0,57.3,29.78,North,9,0.0,0.0,79,0.00,,,0.00,WeatherCatV1.23B16,2014-07-28 10:12:00,
2014-07-28 06:17:00,64.0,57.3,29.79,North,9,0.0,0.0,79,0.00,,,0.00,WeatherCatV1.23B16,2014-07-28 10:17:00,
2014-07-28 06:22:00,64.0,57.0,29.79,North,9,0.0,0.0,78,0.00,,,0.00,WeatherCatV1.23B16,2014-07-28 10:22:00,
2014-07-28 06:27:00,64.0,57.3,29.79,North,9,0.0,0.0,79,0.00,,,0.00,WeatherCatV1.23B16,2014-07-28 10:27:00,
2014-07-28 06:32:00,64.0,57.3,29.79,North,9,0.0,0.0,79,0.00,,,0.00,WeatherCatV1.23B16,2014-07-28 10:32:00,
2014-07-28 06:37:00,64.0,57.3,29.79,North,9,0.0,0.0,79,0.00,,,0.00,WeatherCatV1.23B16,2014-07-28 10:37:00,
2014-07-28 06:42:00,64.0,57.3,29.79,North,9,0.0,0.0,79,0.00,,,0.00,WeatherCatV1.23B16,2014-07-28 10:42:00,
2014-07-28 06:47:00,64.0,57.3,29.80,North,9,0.0,0.0,79,0.00,,,0.00,WeatherCatV1.23B16,2014-07-28 10:47:00,
2014-07-28 06:52:00,64.0,57.7,29.80,North,9,0.0,0.0,80,0.00,,,0.00,WeatherCatV1.23B16,2014-07-28 10:52:00,
2014-07-28 06:57:00,64.0,57.7,29.80,North,9,0.0,0.0,80,0.00,,,0.00,WeatherCatV1.23B16,2014-07-28 10:57:00,
2014-07-28 07:02:00,63.9,57.6,29.80,North,9,0.0,0.0,80,0.00,,,0.00,WeatherCatV1.23B16,2014-07-28 11:02:00,
2014-07-28 07:07:00,63.9,57.6,29.80,North,9,0.0,0.0,80,0.00,,,0.00,WeatherCatV1.23B16,2014-07-28 11:07:00,
2014-07-28 07:12:00,63.9,57.6,29.80,North,9,0.0,0.0,80,0.00,,,0.00,WeatherCatV1.23B16,2014-07-28 11:12:00,
2014-07-28 07:17:00,63.9,57.6,29.80,North,9,0.0,0.0,80,0.00,,,0.00,WeatherCatV1.23B16,2014-07-28 11:17:00,
2014-07-28 07:22:00,63.7,57.4,29.80,North,9,0.0,0.0,80,0.00,,,0.00,WeatherCatV1.23B16,2014-07-28 11:22:00,
2014-07-28 07:27:00,63.7,57.4,29.80,North,9,0.0,0.0,80,0.00,,,0.00,WeatherCatV1.23B16,2014-07-28 11:27:00,
2014-07-28 07:32:00,63.7,57.4,29.80,North,9,0.0,0.0,80,0.00,,,0.00,WeatherCatV1.23B16,2014-07-28 11:32:00,
2014-07-28 07:37:00,63.7,57.4,29.80,North,9,0.0,0.0,80,0.00,,,0.00,WeatherCatV1.23B16,2014-07-28 11:37:00,
2014-07-28 07:42:00,63.5,57.2,29.80,North,9,0.0,0.0,80,0.00,,,0.00,WeatherCatV1.23B16,2014-07-28 11:42:00,
2014-07-28 07:47:00,63.5,57.6,29.80,North,9,0.0,0.0,81,0.00,,,0.00,WeatherCatV1.23B16,2014-07-28 11:47:00,
2014-07-28 07:52:00,63.7,57.8,29.80,North,9,0.0,0.0,81,0.00,,,0.00,WeatherCatV1.23B16,2014-07-28 11:52:00,
2014-07-28 07:57:00,63.7,57.8,29.80,North,9,0.0,0.0,81,0.00,,,0.00,WeatherCatV1.23B16,2014-07-28 11:57:00,
2014-07-28 08:02:00,63.7,57.8,29.81,North,9,0.0,0.0,81,0.00,,,0.00,WeatherCatV1.23B16,2014-07-28 12:02:00,
2014-07-28 08:07:00,63.7,57.8,29.81,North,9,0.0,0.0,81,0.00,,,0.00,WeatherCatV1.23B16,2014-07-28 12:07:00,
2014-07-28 08:12:00,63.7,57.8,29.81,North,9,0.0,1.0,81,0.00,,,0.00,WeatherCatV1.23B16,2014-07-28 12:12:00,
2014-07-28 08:42:00,64.0,57.7,29.82,NW,315,0.0,0.0,80,0.00,,,0.00,WeatherCatV1.23B16,2014-07-28 12:42:00,
2014-07-28 08:47:00,64.0,57.7,29.82,NW,315,0.0,1.0,80,0.00,,,0.00,WeatherCatV1.23B16,2014-07-28 12:47:00,
2014-07-28 08:52:00,64.0,57.7,29.82,NW,315,0.0,0.0,80,0.00,,,0.00,WeatherCatV1.23B16,2014-07-28 12:52:00,
2014-07-28 08:57:00,64.2,57.9,29.82,NW,315,0.0,1.0,80,0.00,,,0.00,WeatherCatV1.23B16,2014-07-28 12:57:00,
2014-07-28 09:02:00,64.2,57.9,29.83,NW,318,0.0,3.0,80,0.00,,,0.00,WeatherCatV1.23B16,2014-07-28 13:02:00,
2014-07-28 09:07:00,64.2,57.9,29.83,NW,318,0.0,2.0,80,0.00,,,0.00,WeatherCatV1.23B16,2014-07-28 13:07:00,
2014-07-28 09:12:00,64.2,57.9,29.83,WNW,289,0.0,1.0,80,0.00,,,0.00,WeatherCatV1.23B16,2014-07-28 13:12:00,
2014-07-28 09:17:00,64.3,58.0,29.83,WNW,289,1.0,1.0,80,0.00,,,0.00,WeatherCatV1.23B16,2014-07-28 13:17:00,
2014-07-28 09:22:00,64.3,58.0,29.83,West,278,0.0,0.0,80,0.00,,,0.00,WeatherCatV1.23B16,2014-07-28 13:22:00,
2014-07-28 09:27:00,64.3,58.0,29.83,NW,304,0.0,0.0,80,0.00,,,0.00,WeatherCatV1.23B16,2014-07-28 13:27:00,
2014-07-28 09:32:00,64.5,57.8,29.84,NW,313,2.0,2.0,79,0.00,,,0.00,WeatherCatV1.23B16,2014-07-28 13:32:00,
2014-07-28 09:37:00,64.5,57.8,29.84,NW,311,0.0,1.0,79,0.00,,,0.00,WeatherCatV1.23B16,2014-07-28 13:37:00,
2014-07-28 09:42:00,64.7,58.0,29.84,NW,306,0.0,3.0,79,0.00,,,0.00,WeatherCatV1.23B16,2014-07-28 13:42:00,
2014-07-28 09:47:00,64.8,58.1,29.84,WNW,291,0.0,3.0,79,0.00,,,0.00,WeatherCatV1.23B16,2014-07-28 13:47:00,
2014-07-28 09:52:00,65.0,58.0,29.84,WNW,290,0.0,2.0,78,0.00,,,0.00,WeatherCatV1.23B16,2014-07-28 13:52:00,
2014-07-28 09:57:00,65.0,58.3,29.84,WSW,252,3.0,3.0,79,0.00,,,0.00,WeatherCatV1.23B16,2014-07-28 13:57:00,
2014-07-28 10:02:00,65.0,58.0,29.85,NW,322,0.0,0.0,78,0.00,,,0.00,WeatherCatV1.23B16,2014-07-28 14:02:00,
2014-07-28 10:07:00,65.2,58.2,29.85,NW,322,0.0,0.0,78,0.00,,,0.00,WeatherCatV1.23B16,2014-07-28 14:07:00,
2014-07-28 10:12:00,65.3,57.9,29.85,WSW,250,0.0,0.0,77,0.00,,,0.00,WeatherCatV1.23B16,2014-07-28 14:12:00,
2014-07-28 10:17:00,65.5,58.1,29.85,NE,38,0.0,1.0,77,0.00,,,0.00,WeatherCatV1.23B16,2014-07-28 14:17:00,
2014-07-28 10:22:00,65.6,58.2,29.85,NW,326,0.0,5.0,77,0.00,,,0.00,WeatherCatV1.23B16,2014-07-28 14:22:00,
2014-07-28 10:27:00,66.0,57.8,29.85,WNW,289,0.0,3.0,75,0.00,,,0.00,WeatherCatV1.23B16,2014-07-28 14:27:00,
2014-07-28 10:32:00,66.1,58.3,29.85,WNW,286,0.0,1.0,76,0.00,,,0.00,WeatherCatV1.23B16,2014-07-28 14:32:00,
2014-07-28 10:37:00,66.1,57.9,29.85,NW,306,0.0,5.0,75,0.00,,,0.00,WeatherCatV1.23B16,2014-07-28 14:37:00,
2014-07-28 10:42:00,66.3,58.5,29.85,NW,308,0.0,0.0,76,0.00,,,0.00,WeatherCatV1.23B16,2014-07-28 14:42:00,
2014-07-28 10:47:00,66.3,58.1,29.85,NW,308,0.0,3.0,75,0.00,,,0.00,WeatherCatV1.23B16,2014-07-28 14:47:00,
2014-07-28 10:52:00,66.3,58.1,29.85,NW,308,0.0,2.0,75,0.00,,,0.00,WeatherCatV1.23B16,2014-07-28 14:52:00,
2014-07-28 10:57:00,66.3,58.1,29.85,NW,308,0.0,0.0,75,0.00,,,0.00,WeatherCatV1.23B16,2014-07-28 14:57:00,
2014-07-28 11:02:00,66.4,58.6,29.86,NW,312,0.0,2.0,76,0.00,,,0.00,WeatherCatV1.23B16,2014-07-28 15:02:00,
2014-07-28 11:07:00,66.4,58.2,29.86,NW,312,0.0,1.0,75,0.00,,,0.00,WeatherCatV1.23B16,2014-07-28 15:07:00,
2014-07-28 11:12:00,66.6,57.3,29.86,North,351,0.0,0.0,72,0.00,,,0.00,WeatherCatV1.23B16,2014-07-28 15:12:00,
2014-07-28 11:17:00,66.9,57.6,29.86,NNE,19,0.0,0.0,72,0.00,,,0.00,WeatherCatV1.23B16,2014-07-28 15:17:00,
2014-07-28 11:22:00,67.1,58.2,29.86,NE,34,0.0,4.0,73,0.00,,,0.00,WeatherCatV1.23B16,2014-07-28 15:22:00,
2014-07-28 11:27:00,67.1,57.4,29.86,WNW,303,0.0,0.0,71,0.00,,,0.00,WeatherCatV1.23B16,2014-07-28 15:27:00,
2014-07-28 11:32:00,67.1,57.4,29.87,West,261,0.0,4.0,71,0.00,,,0.00,WeatherCatV1.23B16,2014-07-28 15:32:00,
2014-07-28 11:37:00,67.1,57.0,29.87,WNW,298,0.0,1.0,70,0.00,,,0.00,WeatherCatV1.23B16,2014-07-28 15:37:00,
2014-07-28 11:42:00,67.3,57.6,29.87,WNW,298,0.0,1.0,71,0.00,,,0.00,WeatherCatV1.23B16,2014-07-28 15:42:00,
2014-07-28 11:47:00,67.3,57.6,29.87,NW,311,0.0,4.0,71,0.00,,,0.00,WeatherCatV1.23B16,2014-07-28 15:47:00,
2014-07-28 11:52:00,67.3,57.6,29.87,NW,315,0.0,0.0,71,0.00,,,0.00,WeatherCatV1.23B16,2014-07-28 15:52:00,
2014-07-28 11:57:00,67.3,57.2,29.87,West,268,0.0,0.0,70,0.00,,,0.00,WeatherCatV1.23B16,2014-07-28 15:57:00,
2014-07-28 12:02:00,67.4,57.3,29.88,NW,315,0.0,1.0,70,0.00,,,0.00,WeatherCatV1.23B16,2014-07-28 16:02:00,
2014-07-28 12:07:00,67.4,57.7,29.88,NW,315,0.0,2.0,71,0.00,,,0.00,WeatherCatV1.23B16,2014-07-28 16:07:00,
2014-07-28 12:12:00,67.6,57.8,29.88,NW,315,0.0,0.0,71,0.00,,,0.00,WeatherCatV1.23B16,2014-07-28 16:12:00,
2014-07-28 12:17:00,67.6,57.5,29.88,NE,38,0.0,3.0,70,0.00,,,0.00,WeatherCatV1.23B16,2014-07-28 16:17:00,
2014-07-28 12:22:00,67.6,57.1,29.88,NW,306,0.0,2.0,69,0.00,,,0.00,WeatherCatV1.23B16,2014-07-28 16:22:00,
2014-07-28 12:27:00,67.8,57.2,29.88,NW,313,2.0,3.0,69,0.00,,,0.00,WeatherCatV1.23B16,2014-07-28 16:27:00,
2014-07-28 12:32:00,67.8,57.2,29.88,NW,313,0.0,0.0,69,0.00,,,0.00,WeatherCatV1.23B16,2014-07-28 16:32:00,
2014-07-28 12:37:00,67.9,57.7,29.88,NW,313,0.0,0.0,70,0.00,,,0.00,WeatherCatV1.23B16,2014-07-28 16:37:00,
2014-07-28 12:42:00,67.9,57.7,29.88,NW,320,0.0,1.0,70,0.00,,,0.00,WeatherCatV1.23B16,2014-07-28 16:42:00,
2014-07-28 12:47:00,67.9,58.1,29.88,NW,320,0.0,1.0,71,0.00,,,0.00,WeatherCatV1.23B16,2014-07-28 16:47:00,
2014-07-28 12:52:00,67.9,57.7,29.88,NW,320,0.0,1.0,70,0.00,,,0.00,WeatherCatV1.23B16,2014-07-28 16:52:00,
2014-07-28 12:57:00,68.1,57.9,29.88,WNW,282,0.0,2.0,70,0.00,,,0.00,WeatherCatV1.23B16,2014-07-28 16:57:00,
2014-07-28 13:02:00,68.1,57.9,29.88,WSW,248,0.0,3.0,70,0.00,,,0.00,WeatherCatV1.23B16,2014-07-28 17:02:00,
2014-07-28 13:07:00,68.1,57.9,29.88,NW,314,2.0,3.0,70,0.00,,,0.00,WeatherCatV1.23B16,2014-07-28 17:07:00,
2014-07-28 13:12:00,68.3,57.7,29.88,NW,314,0.0,1.0,69,0.00,,,0.00,WeatherCatV1.23B16,2014-07-28 17:12:00,
2014-07-28 13:17:00,68.3,57.7,29.88,WSW,257,1.0,2.0,69,0.00,,,0.00,WeatherCatV1.23B16,2014-07-28 17:17:00,
2014-07-28 13:22:00,68.6,58.8,29.88,NW,317,0.0,0.0,71,0.00,,,0.00,WeatherCatV1.23B16,2014-07-28 17:22:00,
2014-07-28 13:27:00,68.9,59.1,29.88,NW,317,0.0,0.0,71,0.00,,,0.00,WeatherCatV1.23B16,2014-07-28 17:27:00,
2014-07-28 13:32:00,69.1,58.1,29.88,WNW,302,0.0,0.0,68,0.00,,,0.00,WeatherCatV1.23B16,2014-07-28 17:32:00,
2014-07-28 13:37:00,69.1,58.1,29.88,WNW,302,0.0,3.0,68,0.00,,,0.00,WeatherCatV1.23B16,2014-07-28 17:37:00,
2014-07-28 13:42:00,68.9,57.9,29.88,NW,308,0.0,3.0,68,0.00,,,0.00,WeatherCatV1.23B16,2014-07-28 17:42:00,
2014-07-28 13:47:00,68.8,57.8,29.88,WNW,302,0.0,4.0,68,0.00,,,0.00,WeatherCatV1.23B16,2014-07-28 17:47:00,
2014-07-28 13:52:00,68.6,57.6,29.88,WNW,285,2.0,4.0,68,0.00,,,0.00,WeatherCatV1.23B16,2014-07-28 17:52:00,
2014-07-28 13:57:00,68.4,58.2,29.88,NW,307,0.0,1.0,70,0.00,,,0.00,WeatherCatV1.23B16,2014-07-28 17:57:00,
2014-07-28 14:02:00,68.3,58.1,29.88,NW,306,0.0,1.0,70,0.00,,,0.00,WeatherCatV1.23B16,2014-07-28 18:02:00,
2014-07-28 14:07:00,68.1,58.3,29.88,WNW,295,0.0,0.0,71,0.00,,,0.00,WeatherCatV1.23B16,2014-07-28 18:07:00,
2014-07-28 14:12:00,68.1,58.3,29.88,North,5,0.0,2.0,71,0.00,,,0.00,WeatherCatV1.23B16,2014-07-28 18:12:00,
2014-07-28 14:17:00,68.4,58.2,29.88,NNW,341,0.0,3.0,70,0.00,,,0.00,WeatherCatV1.23B16,2014-07-28 18:17:00,
2014-07-28 14:22:00,68.6,58.4,29.88,NW,322,0.0,4.0,70,0.00,,,0.00,WeatherCatV1.23B16,2014-07-28 18:22:00,
2014-07-28 14:27:00,68.9,58.7,29.88,NW,323,0.0,1.0,70,0.00,,,0.00,WeatherCatV1.23B16,2014-07-28 18:27:00,
2014-07-28 14:32:00,69.1,59.3,29.88,NW,323,0.0,0.0,71,0.00,,,0.00,WeatherCatV1.23B16,2014-07-28 18:32:00,
2014-07-28 14:37:00,69.3,58.7,29.88,NW,323,0.0,3.0,69,0.00,,,0.00,WeatherCatV1.23B16,2014-07-28 18:37:00,
2014-07-28 14:42:00,69.4,58.4,29.88,West,275,0.0,3.0,68,0.00,,,0.00,WeatherCatV1.23B16,2014-07-28 18:42:00,
2014-07-28 14:47:00,69.4,58.0,29.88,West,261,2.0,6.0,67,0.00,,,0.00,WeatherCatV1.23B16,2014-07-28 18:47:00,
2014-07-28 14:52:00,69.6,58.6,29.88,NW,305,0.0,3.0,68,0.00,,,0.00,WeatherCatV1.23B16,2014-07-28 18:52:00,
2014-07-28 14:57:00,69.9,58.8,29.88,NW,319,4.0,6.0,68,0.00,,,0.00,WeatherCatV1.23B16,2014-07-28 18:57:00,
2014-07-28 15:02:00,70.1,58.2,29.89,WNW,296,0.0,3.0,66,0.00,,,0.00,WeatherCatV1.23B16,2014-07-28 19:02:00,
2014-07-28 15:07:00,70.3,58.8,29.89,West,267,0.0,0.0,67,0.00,,,0.00,WeatherCatV1.23B16,2014-07-28 19:07:00,
2014-07-28 15:12:00,70.4,58.5,29.89,WNW,285,2.0,3.0,66,0.00,,,0.00,WeatherCatV1.23B16,2014-07-28 19:12:00,
2014-07-28 15:17:00,70.3,58.0,29.89,NW,308,0.0,3.0,65,0.00,,,0.00,WeatherCatV1.23B16,2014-07-28 19:17:00,
2014-07-28 15:22:00,70.3,58.0,29.89,NW,313,2.0,3.0,65,0.00,,,0.00,WeatherCatV1.23B16,2014-07-28 19:22:00,
2014-07-28 15:27:00,70.6,57.8,29.89,WSW,254,3.0,7.0,64,0.00,,,0.00,WeatherCatV1.23B16,2014-07-28 19:27:00,
2014-07-28 15:32:00,71.1,57.8,29.88,WNW,285,0.0,4.0,63,0.00,,,0.00,WeatherCatV1.23B16,2014-07-28 19:32:00,
2014-07-28 15:37:00,71.3,58.5,29.88,NW,317,0.0,1.0,64,0.00,,,0.00,WeatherCatV1.23B16,2014-07-28 19:37:00,
2014-07-28 15:42:00,71.3,58.5,29.88,WNW,289,2.0,3.0,64,0.00,,,0.00,WeatherCatV1.23B16,2014-07-28 19:42:00,
2014-07-28 15:47:00,71.5,58.7,29.89,WNW,302,2.0,4.0,64,0.00,,,0.00,WeatherCatV1.23B16,2014-07-28 19:47:00,
2014-07-28 15:52:00,71.8,59.4,29.89,WNW,286,1.0,3.0,65,0.00,,,0.00,WeatherCatV1.23B16,2014-07-28 19:52:00,
2014-07-28 15:57:00,71.8,58.5,29.89,WSW,257,0.0,7.0,63,0.00,,,0.00,WeatherCatV1.23B16,2014-07-28 19:57:00,
2014-07-28 16:02:00,72.0,59.6,29.89,NW,315,0.0,5.0,65,0.00,,,0.00,WeatherCatV1.23B16,2014-07-28 20:02:00,
2014-07-28 16:07:00,72.1,58.8,29.89,NW,315,0.0,2.0,63,0.00,,,0.00,WeatherCatV1.23B16,2014-07-28 20:07:00,
2014-07-28 16:12:00,72.3,58.5,29.89,NW,319,0.0,5.0,62,0.00,,,0.00,WeatherCatV1.23B16,2014-07-28 20:12:00,
2014-07-28 16:17:00,72.7,58.5,29.88,WSW,244,1.0,6.0,61,0.00,,,0.00,WeatherCatV1.23B16,2014-07-28 20:17:00,
2014-07-28 16:22:00,72.8,58.5,29.88,WNW,289,0.0,6.0,61,0.00,,,0.00,WeatherCatV1.23B16,2014-07-28 20:22:00,
2014-07-28 16:27:00,73.0,58.3,29.88,NW,312,3.0,5.0,60,0.00,,,0.00,WeatherCatV1.23B16,2014-07-28 20:27:00,
2014-07-28 16:32:00,73.0,58.3,29.88,WNW,298,0.0,4.0,60,0.00,,,0.00,WeatherCatV1.23B16,2014-07-28 20:32:00,
2014-07-28 16:37:00,73.0,58.3,29.88,NW,306,0.0,2.0,60,0.00,,,0.00,WeatherCatV1.23B16,2014-07-28 20:37:00,
2014-07-28 16:42:00,73.0,57.8,29.88,NW,314,0.0,4.0,59,0.00,,,0.00,WeatherCatV1.23B16,2014-07-28 20:42:00,
2014-07-28 16:47:00,73.2,58.5,29.88,NW,324,0.0,5.0,60,0.00,,,0.00,WeatherCatV1.23B16,2014-07-28 20:47:00,
2014-07-28 16:52:00,73.5,58.3,29.88,WNW,294,2.0,6.0,59,0.00,,,0.00,WeatherCatV1.23B16,2014-07-28 20:52:00,
2014-07-28 16:57:00,73.5,57.3,29.88,West,269,0.0,1.0,57,0.00,,,0.00,WeatherCatV1.23B16,2014-07-28 20:57:00,
2014-07-28 17:02:00,73.7,57.0,29.88,WSW,252,0.0,6.0,56,0.00,,,0.00,WeatherCatV1.23B16,2014-07-28 21:02:00,
2014-07-28 17:07:00,73.5,57.8,29.88,WNW,286,0.0,4.0,58,0.00,,,0.00,WeatherCatV1.23B16,2014-07-28 21:07:00,
2014-07-28 17:12:00,73.3,58.1,29.88,NW,309,0.0,4.0,59,0.00,,,0.00,WeatherCatV1.23B16,2014-07-28 21:12:00,
2014-07-28 17:17:00,73.0,57.8,29.89,NW,315,3.0,5.0,59,0.00,,,0.00,WeatherCatV1.23B16,2014-07-28 21:17:00,
2014-07-28 17:22:00,73.0,57.3,29.89,NW,320,0.0,3.0,58,0.00,,,0.00,WeatherCatV1.23B16,2014-07-28 21:22:00,
2014-07-28 17:27:00,73.2,58.5,29.89,WNW,290,0.0,0.0,60,0.00,,,0.00,WeatherCatV1.23B16,2014-07-28 21:27:00,
2014-07-28 17:32:00,73.2,57.5,29.89,NW,304,0.0,4.0,58,0.00,,,0.00,WeatherCatV1.23B16,2014-07-28 21:32:00,
2014-07-28 17:37:00,72.8,57.2,29.89,NW,323,4.0,7.0,58,0.00,,,0.00,WeatherCatV1.23B16,2014-07-28 21:37:00,
2014-07-28 17:42:00,72.8,57.6,29.89,NW,322,0.0,1.0,59,0.00,,,0.00,WeatherCatV1.23B16,2014-07-28 21:42:00,
2014-07-28 17:47:00,73.0,56.4,29.89,WSW,256,1.0,1.0,56,0.00,,,0.00,WeatherCatV1.23B16,2014-07-28 21:47:00,
2014-07-28 17:52:00,73.5,56.8,29.89,WNW,288,1.0,1.0,56,0.00,,,0.00,WeatherCatV1.23B16,2014-07-28 21:52:00,
2014-07-28 17:57:00,73.9,56.7,29.89,West,278,3.0,3.0,55,0.00,,,0.00,WeatherCatV1.23B16,2014-07-28 21:57:00,
2014-07-28 18:02:00,74.0,56.3,29.89,NNW,339,1.0,3.0,54,0.00,,,0.00,WeatherCatV1.23B16,2014-07-28 22:02:00,
2014-07-28 18:07:00,74.0,54.7,29.89,WNW,301,1.0,4.0,51,0.00,,,0.00,WeatherCatV1.23B16,2014-07-28 22:07:00,
2014-07-28 18:12:00,73.9,55.2,29.89,SW,234,0.0,5.0,52,0.00,,,0.00,WeatherCatV1.23B16,2014-07-28 22:12:00,
2014-07-28 18:17:00,73.7,55.5,29.89,West,281,1.0,6.0,53,0.00,,,0.00,WeatherCatV1.23B16,2014-07-28 22:17:00,
2014-07-28 18:22:00,73.5,55.8,29.89,WNW,294,3.0,5.0,54,0.00,,,0.00,WeatherCatV1.23B16,2014-07-28 22:22:00,
2014-07-28 18:27:00,73.3,56.1,29.89,NW,312,0.0,8.0,55,0.00,,,0.00,WeatherCatV1.23B16,2014-07-28 22:27:00,
2014-07-28 18:32:00,73.2,55.0,29.89,WNW,284,0.0,4.0,53,0.00,,,0.00,WeatherCatV1.23B16,2014-07-28 22:32:00,
2014-07-28 18:37:00,73.0,55.4,29.89,West,266,2.0,4.0,54,0.00,,,0.00,WeatherCatV1.23B16,2014-07-28 22:37:00,
2014-07-28 18:42:00,72.7,54.6,29.89,NW,314,2.0,5.0,53,0.00,,,0.00,WeatherCatV1.23B16,2014-07-28 22:42:00,
2014-07-28 18:47:00,72.3,55.7,29.89,NW,307,0.0,0.0,56,0.00,,,0.00,WeatherCatV1.23B16,2014-07-28 22:47:00,
2014-07-28 18:52:00,72.1,56.0,29.89,NNW,333,1.0,1.0,57,0.00,,,0.00,WeatherCatV1.23B16,2014-07-28 22:52:00,
2014-07-28 18:57:00,72.0,56.4,29.89,WNW,300,4.0,4.0,58,0.00,,,0.00,WeatherCatV1.23B16,2014-07-28 22:57:00,